Overview Statistics Trail Chart Weather Telemetry Raw packets
 

This is the latest recevied weather packets stored in our database for station/object KO4ZGL-13. If no packets are shown the sender has not sent any weather packets the latest 10 day(s).

<< 55 56 57 58 59 60 61 >>
Time Temp. Humidity Pressure Rain* Wind** Luminosity Snow
1788272033 30.56° C 83% 1019.9 hPa 0 mm - 525 W/m² -
1788271732 30.56° C 82% 1019.8 hPa 0 mm - 511 W/m² -
1788271430 30° C 86% 1020 hPa 0 mm - 496 W/m² -
1788271125 29.44° C 89% 1020 hPa 0 mm - 425 W/m² -
1788270820 28.89° C 93% 1020 hPa 0 mm - 409 W/m² -
1788270516 27.78° C 97% 1019.9 hPa 0 mm - 385 W/m² -
1788270211 27.22° C 99% 1019.9 hPa 0 mm - 336 W/m² -
1788269905 26.67° C 99% 1020 hPa 0 mm - 344 W/m² -
1788269604 26.67° C 99% 1019.9 hPa 0 mm - 366 W/m² -
1788269303 26.67° C 99% 1020.1 hPa 0 mm - 396 W/m² -
1788268998 26.11° C 99% 1020.1 hPa 0 mm - 718 W/m² -
1788268692 26.11° C 99% 1020.2 hPa 0 mm - 79 W/m² -
1788268392 26.11° C 99% 1020.2 hPa 0 mm - 70 W/m² -
1788268087 26.11° C 99% 1020.2 hPa 0 mm - 67 W/m² -
1788267787 25.56° C 99% 1020 hPa 0 mm - 64 W/m² -
1788267484 25.56° C 99% 1020.2 hPa 0 mm - 60 W/m² -
1788267179 25° C 99% 1020.1 hPa 0 mm - 59 W/m² -
1788266874 24.44° C 99% 1019.9 hPa 0 mm - 55 W/m² -
1788266569 24.44° C 99% 1019.8 hPa 0 mm - 52 W/m² -
1788266268 23.89° C 99% 1019.9 hPa 0 mm - 47 W/m² -
1788265963 23.89° C 99% 1019.9 hPa 0 mm - 40 W/m² -
1788265662 23.33° C 99% 1020 hPa 0 mm - 38 W/m² -
1788265357 22.78° C 99% 1019.7 hPa 0 mm - 38 W/m² -
1788265051 22.78° C 99% 1020 hPa 0 mm - 39 W/m² -
1788264747 22.78° C 99% 1019.8 hPa 0 mm - 35 W/m² -

* Rain latest hour (hover to see other rain measurements)
** Current wind speed in m/s (hover to see current wind gust speed)